DL1BWU Weather Reports


time (UTC)temp
C
wind
direction
speed
KPH
gust
KPH
rain 1hr
cm
rain 24hr
cm
rain mn
cm
humidity
%
barometer
mb
20260504222510 13 45 0.0 0.0 0.00 0.00 0.00 66 1012.0
20260504221510 14 45 0.0 0.0 0.00 0.00 0.00 66 1012.2
20260504220510 14 45 0.0 0.0 0.00 0.00 0.00 65 1012.1
20260504215510 15 45 0.0 0.0 0.00 0.00 0.00 65 1012.0
20260504214510 15 45 0.0 0.0 0.00 0.00 0.00 65 1012.1
20260504213510 15 45 0.0 0.0 0.00 0.00 0.00 65 1012.2
20260504212510 15 45 0.0 0.0 0.00 0.00 0.00 65 1012.3
20260504211510 15 45 0.0 0.0 0.00 0.00 0.00 65 1012.2
20260504210510 15 45 0.0 0.0 0.00 0.00 0.00 64 1012.2
20260504205510 15 45 0.0 0.0 0.00 0.00 0.00 64 1012.3
20260504204510 16 45 0.0 0.0 0.00 0.00 0.00 64 1012.3
20260504203510 16 45 0.0 0.0 0.00 0.00 0.00 64 1012.1
20260504202510 16 67 0.0 0.0 0.00 0.00 0.00 64 1012.2
20260504201510 16 67 0.0 0.0 0.00 0.00 0.00 64 1012.1
20260504200510 16 67 0.0 0.0 0.00 0.00 0.00 63 1012.1
20260504195510 16 67 0.0 0.0 0.00 0.00 0.00 63 1012.1
20260504194510 16 67 0.0 0.0 0.00 0.00 0.00 63 1012.1
20260504193510 16 67 0.0 0.0 0.00 0.00 0.00 62 1012.0
20260504192510 17 67 0.0 0.0 0.00 0.00 0.00 62 1012.0
20260504191510 17 67 0.0 0.0 0.00 0.00 0.00 61 1011.9
20260504190510 17 67 0.0 0.0 0.00 0.00 0.00 60 1011.9
20260504185510 17 67 0.0 0.0 0.00 0.00 0.00 59 1011.8
20260504184510 18 67 0.0 0.0 0.00 0.00 0.00 59 1011.7
20260504183510 18 67 0.0 0.0 0.00 0.00 0.00 57 1011.7
20260504182510 18 67 0.0 0.0 0.00 0.00 0.00 57 1011.7
20260504181510 19 67 0.0 0.0 0.00 0.00 0.00 56 1011.6
20260504180510 19 67 0.0 0.0 0.00 0.00 0.00 56 1011.6
20260504175510 20 67 0.0 0.0 0.00 0.00 0.00 55 1011.5
20260504174510 20 67 0.0 0.0 0.00 0.00 0.00 55 1011.4
20260504173510 20 67 0.0 0.0 0.00 0.00 0.00 55 1011.3
20260504172510 20 67 0.0 0.0 0.00 0.00 0.00 55 1011.3
20260504171511 20 67 0.0 0.0 0.00 0.00 0.00 55 1011.4
20260504170510 20 67 0.0 0.0 0.00 0.00 0.00 54 1011.4
20260504150511 22 0 0.0 0.0 0.00 0.00 0.00 49 1011.3
20260504140511 22 45 0.0 0.0 0.00 0.00 0.00 51 1012.1
20260504130512 21 45 0.0 0.0 0.00 0.00 0.00 53 1012.3
20260504110511 21 337 0.0 0.0 0.00 0.00 0.00 55 1012.4
20260504100511 21 270 0.0 0.0 0.00 0.00 0.00 54 1012.7
20260504081511 20 247 0.0 0.0 0.00 0.00 0.00 56 1012.4
20260504080511 20 157 0.0 0.0 0.00 0.00 0.00 57 1012.3
20260504050512 16 67 0.0 0.0 0.00 0.00 0.00 61 1011.5
20260504045512 16 67 0.0 0.0 0.00 0.00 0.00 60 1011.4
20260504044512 16 67 0.0 0.0 0.00 0.00 0.00 60 1011.3
20260504043512 16 67 0.0 0.0 0.00 0.00 0.00 59 1011.1
20260504042512 16 67 0.0 0.0 0.00 0.00 0.00 59 1010.8
20260504041512 16 67 0.0 0.0 0.00 0.00 0.00 58 1011.0
20260504040512 16 67 0.0 0.0 0.00 0.00 0.00 58 1011.0
20260504035512 16 337 0.0 0.0 0.00 0.00 0.00 57 1010.9
20260504034512 16 0 0.0 0.0 0.00 0.00 0.00 57 1011.1
20260504033512 16 0 0.0 0.0 0.00 0.00 0.00 57 1011.2
20260504032512 16 0 0.0 0.0 0.00 0.00 0.00 56 1011.1
20260504031512 16 0 0.0 0.0 0.00 0.00 0.00 56 1011.2
20260504030512 16 0 0.0 0.0 0.00 0.00 0.00 55 1011.0
20260504025512 16 0 0.0 0.0 0.00 0.00 0.00 55 1011.2
20260504024512 16 0 0.0 0.0 0.00 0.00 0.00 55 1011.3
20260504023512 16 0 0.0 0.0 0.00 0.00 0.00 54 1011.1
20260504022512 16 0 0.0 0.0 0.00 0.00 0.00 54 1011.0
20260504021512 16 0 0.0 0.0 0.00 0.00 0.00 54 1010.9
20260504020512 16 0 0.0 0.0 0.00 0.00 0.00 53 1010.9
20260504015512 16 0 0.0 0.0 0.00 0.00 0.00 53 1010.9
20260504014512 16 0 0.0 0.0 0.00 0.00 0.00 53 1010.8
20260504013512 16 0 0.0 0.0 0.00 0.00 0.00 52 1010.7
20260504012512 17 0 0.0 0.0 0.00 0.00 0.00 52 1010.7
20260504011512 17 0 0.0 0.0 0.00 0.00 0.00 51 1010.7
20260504010512 17 0 0.0 0.0 0.00 0.00 0.00 51 1010.5
20260504005512 17 0 0.0 0.0 0.00 0.00 0.00 50 1010.5
20260504004512 17 0 0.0 0.0 0.00 0.00 0.00 50 1010.4
20260504003512 17 0 0.0 0.0 0.00 0.00 0.00 49 1010.4
20260504002512 18 0 0.0 0.0 0.00 0.00 0.00 49 1010.5
20260504001512 18 292 0.0 0.0 0.00 0.00 0.00 49 1010.5
20260504000512 18 292 0.0 0.0 0.00 0.00 0.00 49 1010.5
20260503235512 18 292 0.0 0.0 0.00 0.00 0.00 49 1010.3
20260503234513 18 0 0.0 0.0 0.00 0.00 0.00 49 1010.3
20260503233512 18 315 0.0 0.0 0.00 0.00 0.00 49 1010.3
20260503232512 18 45 0.0 0.0 0.00 0.00 0.00 50 1010.5
20260503231513 17 45 0.0 0.0 0.00 0.00 0.00 51 1010.4
20260503230512 17 315 0.0 0.0 0.00 0.00 0.00 56 1010.7
20260503225513 17 45 0.0 0.0 0.00 0.00 0.00 56 1010.5
20260503224513 17 45 0.0 0.0 0.00 0.00 0.00 56 1010.4
20260503223513 17 45 0.0 0.0 0.00 0.00 0.00 56 1010.3